TimeCDT,TemperatureF,Dew PointF,Humidity,Sea Level PressureIn,VisibilityMPH,Wind Direction,Wind SpeedMPH,Gust SpeedMPH,PrecipitationIn,Events,Conditions,WindDirDegrees,DateUTC
12:15 AM,62.6,53.6,72,29.88,10.0,NE,6.9,-,N/A,,Overcast,40,2012-10-03 05:15:00
12:35 AM,62.6,53.6,72,29.88,10.0,NNE,9.2,-,N/A,,Overcast,20,2012-10-03 05:35:00
12:55 AM,62.6,53.6,72,29.88,10.0,NNE,6.9,-,N/A,,Overcast,30,2012-10-03 05:55:00
1:15 AM,62.6,53.6,72,29.88,10.0,NE,9.2,-,N/A,,Overcast,40,2012-10-03 06:15:00
1:35 AM,62.6,55.4,77,29.88,10.0,NE,9.2,-,N/A,,Overcast,40,2012-10-03 06:35:00
1:55 AM,62.6,53.6,72,29.88,10.0,NE,10.4,-,N/A,,Overcast,40,2012-10-03 06:55:00
2:15 AM,62.6,53.6,72,29.88,10.0,NE,9.2,-,N/A,,Overcast,50,2012-10-03 07:15:00
2:35 AM,60.8,55.4,82,29.88,10.0,NE,6.9,-,N/A,,Overcast,50,2012-10-03 07:35:00
2:55 AM,60.8,55.4,82,29.88,10.0,NE,8.1,-,N/A,,Overcast,40,2012-10-03 07:55:00
3:15 AM,60.8,55.4,82,29.88,7.0,NE,4.6,-,N/A,,Overcast,40,2012-10-03 08:15:00
3:35 AM,60.8,55.4,82,29.88,7.0,NE,4.6,-,N/A,,Overcast,40,2012-10-03 08:35:00
3:55 AM,60.8,55.4,82,29.88,7.0,Calm,Calm,-,N/A,,Overcast,0,2012-10-03 08:55:00
4:15 AM,60.8,55.4,82,29.89,5.0,Calm,Calm,-,N/A,Rain,Rain,0,2012-10-03 09:15:00
4:35 AM,60.8,55.4,82,29.90,7.0,Calm,Calm,-,N/A,,Overcast,0,2012-10-03 09:35:00
4:55 AM,60.8,55.4,82,29.90,7.0,Calm,Calm,-,N/A,Rain,Light Rain,0,2012-10-03 09:55:00
5:15 AM,60.8,57.2,88,29.90,4.0,NNE,3.5,-,N/A,,Drizzle,20,2012-10-03 10:15:00
5:35 AM,60.8,57.2,88,29.91,4.0,NNE,3.5,-,N/A,Rain,Light Rain,30,2012-10-03 10:35:00
5:55 AM,60.8,57.2,88,29.91,3.0,Calm,Calm,-,N/A,,Light Drizzle,0,2012-10-03 10:55:00
6:15 AM,60.8,59.0,94,29.92,3.0,WNW,3.5,-,N/A,,Drizzle,300,2012-10-03 11:15:00
6:35 AM,60.8,59.0,94,29.92,2.5,WNW,4.6,-,N/A,Rain,Rain,300,2012-10-03 11:35:00
6:55 AM,59.0,55.4,88,29.93,5.0,West,5.8,-,0.01,,Drizzle,280,2012-10-03 11:55:00
7:15 AM,59.0,55.4,88,29.93,7.0,West,4.6,-,0.01,,Drizzle,280,2012-10-03 12:15:00
7:35 AM,59.0,57.2,94,29.94,2.0,West,9.2,-,0.01,,Drizzle,270,2012-10-03 12:35:00
7:55 AM,57.2,55.4,94,29.95,1.5,West,6.9,-,0.01,,Light Drizzle,270,2012-10-03 12:55:00
8:15 AM,57.2,55.4,94,29.94,1.5,West,8.1,-,0.01,,Light Drizzle,280,2012-10-03 13:15:00
8:35 AM,57.2,55.4,94,29.95,1.8,WNW,8.1,-,0.01,,Overcast,290,2012-10-03 13:35:00
8:55 AM,57.2,55.4,94,29.95,1.2,West,10.4,-,0.01,,Overcast,270,2012-10-03 13:55:00
9:15 AM,57.2,57.2,100,29.94,1.8,West,12.7,-,N/A,,Overcast,260,2012-10-03 14:15:00
9:35 AM,57.2,57.2,100,29.96,2.0,West,6.9,-,N/A,,Overcast,270,2012-10-03 14:35:00
9:55 AM,57.2,57.2,100,29.96,2.5,West,6.9,-,N/A,,Overcast,270,2012-10-03 14:55:00
10:15 AM,57.2,57.2,100,29.96,2.0,West,6.9,-,N/A,,Overcast,280,2012-10-03 15:15:00
10:35 AM,57.2,57.2,100,29.96,2.5,West,9.2,-,N/A,,Overcast,270,2012-10-03 15:35:00
10:55 AM,57.2,57.2,100,29.97,4.0,West,5.8,-,N/A,,Overcast,280,2012-10-03 15:55:00
11:15 AM,60.8,57.2,88,29.97,4.0,West,5.8,-,N/A,,Mostly Cloudy,260,2012-10-03 16:15:00
11:35 AM,60.8,57.2,88,29.97,4.0,West,6.9,-,N/A,,Mostly Cloudy,260,2012-10-03 16:35:00
11:55 AM,62.6,57.2,82,29.97,10.0,West,8.1,-,N/A,,Overcast,260,2012-10-03 16:55:00
12:15 PM,62.6,57.2,82,29.97,10.0,West,5.8,-,N/A,,Overcast,260,2012-10-03 17:15:00
12:35 PM,62.6,57.2,82,29.97,10.0,West,4.6,-,N/A,,Overcast,260,2012-10-03 17:35:00
12:55 PM,62.6,57.2,82,29.97,10.0,WSW,5.8,-,N/A,,Overcast,240,2012-10-03 17:55:00
1:15 PM,64.4,57.2,77,29.96,10.0,West,4.6,-,N/A,,Overcast,260,2012-10-03 18:15:00
1:35 PM,64.4,55.4,73,29.96,10.0,West,5.8,-,N/A,,Overcast,260,2012-10-03 18:35:00
1:55 PM,64.4,55.4,73,29.96,10.0,WSW,5.8,-,N/A,,Overcast,250,2012-10-03 18:55:00
2:15 PM,64.4,57.2,77,29.96,10.0,WSW,8.1,-,N/A,,Overcast,240,2012-10-03 19:15:00
2:35 PM,64.4,57.2,77,29.96,10.0,SW,6.9,-,N/A,,Mostly Cloudy,220,2012-10-03 19:35:00
2:55 PM,66.2,57.2,73,29.96,10.0,SW,6.9,-,N/A,,Scattered Clouds,230,2012-10-03 19:55:00
3:15 PM,66.2,55.4,68,29.97,10.0,SW,9.2,-,N/A,,Clear,230,2012-10-03 20:15:00
3:35 PM,66.2,57.2,73,29.96,10.0,WSW,6.9,-,N/A,,Clear,240,2012-10-03 20:35:00
3:55 PM,66.2,55.4,68,29.96,10.0,SSW,6.9,-,N/A,,Clear,200,2012-10-03 20:55:00
4:15 PM,66.2,57.2,73,29.97,10.0,SW,4.6,-,N/A,,Scattered Clouds,220,2012-10-03 21:15:00
4:35 PM,66.2,57.2,73,29.97,10.0,SW,4.6,-,N/A,,Mostly Cloudy,230,2012-10-03 21:35:00
4:55 PM,66.2,55.4,68,29.97,10.0,Calm,Calm,-,N/A,,Overcast,0,2012-10-03 21:55:00
5:15 PM,66.2,55.4,68,29.97,10.0,Calm,Calm,-,N/A,,Overcast,0,2012-10-03 22:15:00
5:35 PM,66.2,55.4,68,29.98,10.0,Calm,Calm,-,N/A,,Overcast,0,2012-10-03 22:35:00
5:55 PM,66.2,55.4,68,29.98,10.0,Calm,Calm,-,N/A,,Mostly Cloudy,0,2012-10-03 22:55:00
6:15 PM,66.2,57.2,73,29.98,10.0,Calm,Calm,-,N/A,,Mostly Cloudy,0,2012-10-03 23:15:00
6:35 PM,64.4,57.2,77,29.99,10.0,Calm,Calm,-,N/A,,Mostly Cloudy,0,2012-10-03 23:35:00
6:55 PM,64.4,57.2,77,29.99,10.0,Calm,Calm,-,N/A,,Scattered Clouds,0,2012-10-03 23:55:00
7:15 PM,62.6,57.2,82,29.99,10.0,SE,4.6,-,N/A,Rain,Rain,130,2012-10-04 00:15:00
7:35 PM,62.6,57.2,82,30.00,10.0,SE,5.8,-,N/A,,Overcast,140,2012-10-04 00:35:00
7:55 PM,62.6,57.2,82,30.01,10.0,SSE,4.6,-,N/A,,Overcast,150,2012-10-04 00:55:00
8:15 PM,62.6,57.2,82,30.01,10.0,SSE,8.1,-,N/A,,Overcast,160,2012-10-04 01:15:00
8:35 PM,62.6,57.2,82,30.02,7.0,SW,4.6,-,N/A,Rain,Light Rain,220,2012-10-04 01:35:00
8:55 PM,62.6,57.2,82,30.03,10.0,SW,3.5,-,N/A,Rain,Light Rain,220,2012-10-04 01:55:00
9:15 PM,62.6,57.2,82,30.03,10.0,SW,4.6,-,N/A,Rain,Light Rain,220,2012-10-04 02:15:00
9:35 PM,62.6,55.4,77,30.04,10.0,SW,5.8,-,N/A,,Light Drizzle,230,2012-10-04 02:35:00
9:55 PM,62.6,55.4,77,30.04,10.0,South,5.8,-,N/A,Rain,Light Rain,190,2012-10-04 02:55:00
10:15 PM,60.8,55.4,82,30.04,10.0,Calm,Calm,-,N/A,,Drizzle,0,2012-10-04 03:15:00
10:35 PM,60.8,55.4,82,30.05,10.0,West,3.5,-,N/A,,Light Drizzle,270,2012-10-04 03:35:00
10:55 PM,60.8,55.4,82,30.05,10.0,Calm,Calm,-,N/A,,Overcast,0,2012-10-04 03:55:00
11:15 PM,60.8,53.6,77,30.05,10.0,West,3.5,-,0.01,Rain,Rain,280,2012-10-04 04:15:00
11:35 PM,60.8,53.6,77,30.05,7.0,Calm,Calm,-,0.04,Rain,Rain,0,2012-10-04 04:35:00
11:55 PM,60.8,53.6,77,30.05,10.0,SSE,5.8,-,0.05,Rain,Light Rain,150,2012-10-04 04:55:00